1520413200.4,46271,8.69,71530.8,-2.19,-3.03,-3.03,0,*5C
1520413201.6,46272,8.69,71534.3,-2.19,-3.03,-3.03,0,*5F
1520413202.79,46273,8.69,71534.0,-2.19,-3.03,-3.03,0,*5E
1520413204.01,46274,8.69,71530.8,-2.17,-2.99,-2.99,0,*57
1520413205.21,46275,8.69,71530.8,-2.19,-3.07,-2.99,0,*5E
1520413206.4,46276,8.69,71530.5,-2.19,-3.03,-3.03,0,*5B
1520413207.59,46277,8.69,71532.8,-2.19,-3.03,-3.03,0,*5A
1520413208.79,46278,8.69,71532.8,-2.19,-3.11,-3.11,0,*55
1520413209.98,46279,8.69,71534.5,-2.19,-3.03,-3.03,0,*54
1520413211.2,46280,8.69,71532.3,-2.17,-2.99,-2.99,0,*5C
1520413212.39,46281,8.69,71532.8,-2.19,-3.11,-3.03,0,*50
1520413213.62,46282,8.69,71532.3,-2.17,-2.99,-2.99,0,*5E
1520413214.84,46283,8.69,71534.5,-2.17,-2.99,-2.99,0,*5F
1520413216.03,46284,8.69,71530.8,-2.19,-3.03,-3.03,0,*56
1520413217.22,46285,8.69,71528.5,-2.19,-3.03,-3.03,0,*57
1520413218.42,46286,8.69,71528.8,-2.19,-3.03,-3.03,0,*54
1520413219.61,46287,8.69,71530.0,-2.19,-3.11,-3.11,0,*55
1520413220.8,46288,8.69,71534.3,-2.19,-3.11,-3.11,0,*5A
1520413221.99,46289,8.69,71532.8,-2.19,-3.03,-3.11,0,*58
1520413223.18,46290,8.69,71532.0,-2.19,-3.03,-3.03,0,*53
1520413224.41,46291,8.69,71528.5,-2.21,-3.03,-3.03,0,*59
1520413225.63,46292,8.69,71528.5,-2.21,-3.11,-3.11,0,*5A
1520413226.85,46293,8.69,71530.0,-2.21,-3.11,-3.03,0,*58
1520413228.08,46294,8.69,71528.8,-2.21,-3.11,-3.03,0,*5F
1520413229.27,46295,8.69,71532.5,-2.19,-3.03,-3.11,0,*55
1520413230.46,46296,8.69,71532.3,-2.19,-3.11,-3.03,0,*56
1520413231.65,46297,8.69,71532.5,-2.19,-3.03,-3.03,0,*54
1520413232.85,46298,8.75,71536.0,-2.19,-3.03,-3.03,0,*5B
1520413234.04,46299,8.69,71532.8,-2.19,-3.03,-3.03,0,*5A
1520413235.26,46300,8.69,71532.8,-2.21,-3.03,-3.03,0,*50
1520413236.49,46301,8.69,71530.0,-2.21,-2.99,-3.03,0,*53
1520413237.71,46302,8.69,71530.5,-2.21,-2.99,-2.99,0,*52
1520413238.94,46303,8.69,71532.5,-2.21,-2.99,-2.99,0,*53
1520413240.16,46304,8.69,71532.3,-2.21,-2.99,-2.99,0,*54
1520413241.36,46305,8.69,71534.0,-2.19,-2.99,-2.99,0,*5E
1520413242.56,46306,8.69,71530.8,-2.19,-2.99,-2.99,0,*5D
1520413243.75,46307,8.69,71534.5,-2.19,-2.99,-2.99,0,*5C
1520413244.95,46308,8.69,71530.3,-2.19,-2.99,-2.95,0,*5F
1520413246.14,46309,8.69,71528.3,-2.19,-2.99,-2.99,0,*52
1520413247.34,46310,8.69,71528.0,-2.23,-3.03,-3.03,0,*53
1520413248.57,46311,8.69,71532.0,-2.21,-2.99,-2.99,0,*50
1520413249.77,46312,8.69,71534.3,-2.19,-2.99,-2.99,0,*58
1520413250.96,46313,8.69,71534.5,-2.19,-2.99,-2.95,0,*55
1520413252.16,46314,8.69,71530.5,-2.19,-2.99,-2.99,0,*5E
1520413253.38,46315,8.69,71530.8,-2.21,-2.99,-2.99,0,*54
1520413254.58,46316,8.69,71528.8,-2.19,-2.99,-2.99,0,*5C
1520413255.78,46317,8.69,71530.5,-2.23,-3.03,-3.03,0,*54
1520413257.0,46318,8.69,71532.0,-2.17,-2.99,-2.95,0,*50
1520413258.23,46319,8.69,71534.0,-2.21,-3.03,-2.99,0,*5A
1520413259.42,46320,8.69,71530.0,-2.19,-3.03,-3.11,0,*5A
1520413260.64,46321,8.69,71534.3,-2.21,-3.03,-3.11,0,*50
1520413261.86,46322,8.69,71530.8,-2.21,-3.03,-3.11,0,*53
1520413263.06,46323,8.69,71526.8,-2.23,-3.15,-3.07,0,*50
1520413264.29,46324,8.69,71532.5,-2.21,-3.11,-3.03,0,*55
1520413265.48,46325,8.69,71534.5,-2.23,-3.07,-3.07,0,*55
1520413266.71,46326,8.69,71532.3,-2.21,-3.11,-3.03,0,*57
1520413267.93,46327,8.69,71532.0,-2.21,-3.11,-3.03,0,*56
1520413269.13,46328,8.69,71530.0,-2.23,-3.15,-3.15,0,*58
1520413270.35,46329,8.69,71534.8,-2.21,-3.11,-3.11,0,*5B
1520413271.58,46330,8.69,71530.3,-2.21,-3.03,-3.03,0,*53
1520413272.8,46331,8.69,71528.3,-2.21,-3.11,-3.03,0,*51
1520413274.02,46332,8.69,71530.0,-2.21,-3.03,-3.11,0,*52
1520413275.22,46333,8.69,71528.5,-2.23,-3.07,-3.07,0,*52
1520413276.42,46334,8.69,71528.3,-2.23,-3.07,-3.07,0,*55
1520413277.64,46335,8.69,71530.3,-2.21,-3.03,-3.03,0,*56
1520413278.84,46336,8.69,71528.5,-2.23,-3.07,-3.07,0,*57
1520413280.04,46337,8.69,71530.0,-2.23,-3.07,-3.07,0,*56
1520413281.26,46338,8.75,71534.5,-2.21,-3.03,-3.03,0,*5B
1520413282.48,46339,8.69,71532.3,-2.21,-3.03,-3.03,0,*5A
1520413283.68,46340,8.69,71532.5,-2.23,-3.03,-3.07,0,*52
1520413284.88,46341,8.69,71530.0,-2.23,-3.03,-3.07,0,*53
1520413286.08,46342,8.69,71530.8,-2.23,-2.99,-3.07,0,*52
1520413287.3,46343,8.69,71534.0,-2.21,-3.03,-3.03,0,*57
1520413288.5,46344,8.69,71530.0,-2.23,-3.07,-3.07,0,*52
1520413289.7,46345,8.69,71530.3,-2.23,-3.03,-3.07,0,*57
1520413290.9,46346,8.69,71530.0,-2.23,-3.03,-3.07,0,*54
1520413292.1,46347,8.69,71534.0,-2.23,-3.03,-3.03,0,*51
1520413293.3,46348,8.69,71532.5,-2.23,-3.03,-3.03,0,*5E
1520413294.52,46349,8.69,71530.5,-2.21,-2.99,-2.99,0,*5D
1520413295.72,46350,8.69,71528.8,-2.23,-2.99,-3.03,0,*55
1520413296.92,46351,8.69,71532.0,-2.23,-3.03,-2.99,0,*54
1520413298.12,46352,8.69,71530.3,-2.23,-3.03,-3.03,0,*55
1520413299.35,46353,8.75,71532.5,-2.21,-2.99,-2.95,0,*5A
1520413300.55,46354,8.69,71530.3,-2.23,-2.99,-2.99,0,*53
1520413301.75,46355,8.69,71530.0,-2.23,-2.99,-2.99,0,*52
1520413302.99,46356,8.69,71534.0,-2.21,-2.95,-2.99,0,*5F
1520413304.22,46357,8.69,71532.5,-2.21,-2.95,-2.95,0,*52
1520413305.45,46358,8.69,71528.0,-2.21,-2.99,-2.95,0,*51
1520413306.65,46359,8.69,71532.5,-2.23,-2.99,-2.99,0,*5E
1520413307.88,46360,8.69,71530.5,-2.21,-2.95,-2.95,0,*56
1520413309.08,46361,8.69,71534.3,-2.23,-2.99,-2.99,0,*55
1520413310.29,46362,8.75,71532.3,-2.23,-2.99,-2.99,0,*56
1520413311.52,46363,8.69,71532.5,-2.21,-2.95,-2.95,0,*55
1520413312.72,46364,8.75,71534.3,-2.23,-2.91,-2.99,0,*58
1520413313.94,46365,8.69,71532.0,-2.21,-2.99,-2.99,0,*53
1520413315.17,46366,8.69,71530.0,-2.21,-2.99,-2.95,0,*5C
1520413316.37,46367,8.69,71530.8,-2.23,-3.03,-3.03,0,*53
1520413317.59,46368,8.69,71530.3,-2.21,-2.99,-2.99,0,*5E
1520413318.82,46369,8.69,71534.3,-2.21,-2.99,-2.95,0,*53
1520413320.05,46370,8.69,71532.8,-2.21,-2.99,-2.99,0,*57
1520413321.25,46371,8.69,71530.8,-2.23,-3.07,-2.99,0,*52
1520413322.45,46372,8.75,71534.0,-2.23,-3.07,-3.03,0,*53
1520413323.65,46373,8.69,71528.5,-2.23,-3.07,-3.07,0,*56
1520413324.84,46374,8.69,71528.5,-2.23,-3.07,-3.03,0,*55
1520413326.07,46375,8.69,71534.5,-2.21,-3.03,-2.99,0,*50
1520413327.27,46376,8.69,71530.8,-2.23,-3.07,-3.03,0,*57
1520413328.47,46377,8.69,71532.0,-2.23,-3.03,-3.03,0,*52
1520413329.67,46378,8.69,71528.3,-2.23,-2.99,-2.99,0,*5D
1520413330.9,46379,8.69,71528.8,-2.21,-2.99,-2.99,0,*5E
1520413332.12,46380,8.69,71528.0,-2.21,-2.99,-2.99,0,*58
1520413333.35,46381,8.69,71534.0,-2.21,-2.99,-2.95,0,*55
1520413334.55,46382,8.69,71530.5,-2.23,-3.03,-3.03,0,*58
1520413335.75,46383,8.69,71534.0,-2.23,-3.03,-3.03,0,*59
1520413336.97,46384,8.69,71530.0,-2.21,-2.99,-2.99,0,*5C
1520413338.21,46385,8.69,71532.5,-2.21,-2.95,-2.95,0,*5D
1520413339.41,46386,8.69,71530.5,-2.27,-2.99,-2.99,0,*58
1520413340.61,46387,8.69,71530.5,-2.23,-2.99,-2.99,0,*5D
1520413341.84,46388,8.69,71532.3,-2.21,-2.99,-2.99,0,*50
1520413343.06,46389,8.69,71528.5,-2.21,-2.95,-2.87,0,*52
1520413344.27,46390,8.69,71532.3,-2.23,-2.99,-2.99,0,*5B
1520413345.49,46391,8.69,71528.5,-2.21,-2.87,-2.87,0,*58
1520413346.69,46392,8.69,71532.3,-2.23,-2.91,-2.99,0,*51
1520413347.89,46393,8.75,71534.5,-2.23,-2.99,-2.99,0,*58
1520413349.09,46394,8.69,71534.0,-2.23,-2.99,-2.99,0,*5F
1520413350.29,46395,8.69,71530.5,-2.23,-3.03,-2.87,0,*53
1520413351.53,46396,8.69,71528.3,-2.21,-2.95,-2.95,0,*5F
1520413352.72,46397,8.69,71534.0,-2.23,-3.03,-2.87,0,*51
1520413353.95,46398,8.69,71532.8,-2.21,-2.95,-2.83,0,*56
1520413355.15,46399,8.69,71532.5,-2.23,-2.99,-3.03,0,*50
1520413356.35,46400,8.69,71532.3,-2.23,-2.99,-3.03,0,*57
1520413357.55,46401,8.69,71530.3,-2.23,-2.99,-2.99,0,*54
1520413358.76,46402,8.69,71530.3,-2.23,-3.03,-2.99,0,*55
1520413359.98,46403,8.69,71530.8,-2.21,-2.99,-2.99,0,*54
1520413361.18,46404,8.69,71530.3,-2.23,-3.03,-3.03,0,*51
1520413362.38,46405,8.69,71528.8,-2.23,-2.99,-3.03,0,*52
1520413363.61,46406,8.69,71530.0,-2.21,-2.95,-2.95,0,*51
1520413364.81,46407,8.69,71532.3,-2.23,-3.03,-2.99,0,*50
1520413366.04,46408,8.69,71532.5,-2.21,-2.99,-2.99,0,*5F
1520413367.27,46409,8.69,71530.0,-2.21,-2.99,-2.95,0,*52
1520413368.47,46410,8.69,71534.0,-2.23,-2.99,-3.03,0,*56
1520413369.67,46411,8.69,71532.5,-2.23,-3.03,-2.99,0,*57
1520413370.89,46412,8.75,71532.5,-2.21,-2.99,-3.03,0,*56
1520413372.09,46413,8.69,71530.8,-2.23,-3.03,-2.99,0,*55
1520413373.33,46414,8.75,71534.8,-2.21,-2.95,-2.99,0,*5E
1520413374.52,46415,8.69,71530.5,-2.23,-3.03,-3.03,0,*51
1520413375.75,46416,8.69,71528.8,-2.21,-2.99,-2.99,0,*50
1520413376.95,46417,8.69,71534.5,-2.23,-2.99,-2.99,0,*53
1520413378.16,46418,8.75,71536.3,-2.23,-3.03,-2.95,0,*52
1520413379.36,46419,8.69,71532.3,-2.23,-3.03,-3.03,0,*5D
1520413380.56,46420,8.75,71534.5,-2.23,-3.03,-3.03,0,*57
1520413381.75,46421,8.75,71532.5,-2.23,-3.03,-3.03,0,*56
1520413382.95,46422,8.69,71526.5,-2.23,-3.03,-3.03,0,*55
1520413384.15,46423,8.69,71534.0,-2.23,-3.07,-3.03,0,*50
1520413385.38,46424,8.69,71530.8,-2.21,-3.03,-2.99,0,*53
1520413386.6,46425,8.69,71532.0,-2.21,-3.03,-2.99,0,*52
1520413387.8,46426,8.69,71532.3,-2.23,-3.03,-3.03,0,*51
1520413389.0,46427,8.69,71532.0,-2.23,-3.03,-3.03,0,*50
1520413390.2,46428,8.69,71530.3,-2.23,-3.03,-3.03,0,*5F
1520413391.43,46429,8.69,71528.8,-2.21,-2.99,-2.99,0,*5C
1520413392.65,46430,8.69,71530.3,-2.21,-2.99,-2.99,0,*54
1520413393.85,46431,8.69,71528.5,-2.23,-3.03,-3.03,0,*57
1520413395.06,46432,8.75,71532.5,-2.23,-3.03,-2.99,0,*56
1520413396.28,46433,8.75,71534.0,-2.21,-2.99,-2.99,0,*57
1520413397.51,46434,8.75,71532.8,-2.21,-2.99,-2.95,0,*5C
1520413398.73,46435,8.69,71528.0,-2.21,-2.99,-2.99,0,*51
1520413399.96,46436,8.75,71532.0,-2.21,-2.99,-2.99,0,*52
1520413401.18,46437,8.75,71532.5,-2.21,-2.99,-2.95,0,*5F
1520413402.41,46438,8.69,71532.8,-2.21,-2.99,-2.99,0,*5C
1520413403.61,46439,8.69,71528.0,-2.23,-3.03,-3.03,0,*5F
1520413404.8,46440,8.69,71530.0,-2.19,-3.07,-3.03,0,*5C
1520413406.03,46441,8.69,71528.3,-2.21,-3.03,-2.99,0,*50
1520413407.23,46442,8.69,71530.3,-2.23,-3.03,-3.03,0,*53
1520413408.43,46443,8.69,71528.8,-2.23,-3.03,-3.03,0,*52
1520413409.63,46444,8.69,71530.8,-2.23,-3.03,-3.03,0,*55
1520413410.82,46445,8.69,71530.5,-2.23,-3.03,-3.03,0,*54
1520413412.02,46446,8.69,71530.8,-2.23,-3.03,-3.03,0,*57
1520413413.25,46447,8.69,71528.0,-2.21,-2.99,-2.99,0,*54
1520413414.48,46448,8.69,71532.0,-2.21,-2.99,-2.99,0,*5B
1520413415.7,46449,8.69,71532.8,-2.21,-2.99,-2.99,0,*5A
1520413416.9,46450,8.75,71532.3,-2.23,-3.03,-3.03,0,*50
1520413418.1,46451,8.69,71530.3,-2.23,-3.03,-3.03,0,*51
1520413419.33,46452,8.75,71530.8,-2.21,-2.99,-2.99,0,*50
1520413420.55,46453,8.69,71528.3,-2.21,-2.99,-2.99,0,*51
1520413421.75,46454,8.69,71530.5,-2.23,-3.03,-3.03,0,*54
1520413422.95,46455,8.75,71532.0,-2.23,-2.99,-3.03,0,*57
1520413424.15,46456,8.75,71532.3,-2.23,-3.03,-3.03,0,*56
1520413425.35,46457,8.69,71530.3,-2.23,-3.03,-3.03,0,*57
1520413426.57,46458,8.69,71528.3,-2.21,-2.99,-2.99,0,*5A
1520413427.8,46459,8.75,71530.8,-2.21,-2.99,-2.99,0,*5B
1520413429.0,46460,8.69,71530.0,-2.23,-2.99,-3.03,0,*51
1520413430.2,46461,8.75,71532.3,-2.23,-3.03,-3.03,0,*52
1520413431.4,46462,8.69,71532.0,-2.23,-2.99,-3.03,0,*53
1520413432.62,46463,8.75,71532.8,-2.21,-2.99,-2.99,0,*52
1520413433.82,46464,8.75,71530.8,-2.23,-3.03,-3.03,0,*57
1520413435.02,46465,8.75,71530.5,-2.23,-2.99,-3.03,0,*54
1520413436.23,46466,8.75,71528.0,-2.23,-3.03,-2.95,0,*5B
1520413437.43,46467,8.69,71528.3,-2.23,-3.03,-3.03,0,*54
1520413438.63,46468,8.69,71530.8,-2.23,-3.07,-3.07,0,*5B
1520413439.82,46469,8.69,71528.3,-2.23,-3.07,-3.03,0,*5E
1520413441.02,46470,8.75,71530.3,-2.23,-3.03,-3.03,0,*52
1520413442.22,46471,8.69,71530.0,-2.23,-3.03,-3.03,0,*53
1520413443.42,46472,8.69,71528.5,-2.23,-3.03,-3.03,0,*50
1520413444.62,46473,8.69,71532.0,-2.23,-3.07,-3.03,0,*55
1520413445.82,46474,8.69,71528.5,-2.23,-3.07,-3.03,0,*52
1520413447.04,46475,8.69,71530.3,-2.21,-3.03,-2.99,0,*57
1520413448.24,46476,8.75,71532.8,-2.27,-3.07,-3.07,0,*50
1520413449.44,46477,8.69,71528.8,-2.27,-3.07,-3.15,0,*52
1520413450.64,46478,8.75,71532.8,-2.27,-3.15,-3.07,0,*5D
1520413451.83,46479,8.75,71530.5,-2.23,-3.07,-3.15,0,*58
1520413453.03,46480,8.75,71532.3,-2.27,-3.07,-3.07,0,*59
1520413454.23,46481,8.75,71534.8,-2.27,-3.07,-3.07,0,*58
1520413455.43,46482,8.75,71534.3,-2.23,-3.07,-3.07,0,*5F
1520413456.63,46483,8.75,71534.8,-2.27,-3.07,-3.07,0,*5A
1520413457.82,46484,8.75,71528.0,-2.27,-3.07,-3.07,0,*5D
1520413459.03,46485,8.69,71530.3,-2.27,-3.15,-3.07,0,*5F
1520413460.22,46486,8.75,71528.5,-2.27,-3.07,-3.07,0,*5F
1520413461.42,46487,8.75,71532.0,-2.27,-3.07,-3.07,0,*5E
1520413462.62,46488,8.69,71530.0,-2.27,-3.07,-3.07,0,*51
1520413463.82,46489,8.69,71530.5,-2.27,-3.07,-3.07,0,*50
1520413465.04,46490,8.75,71530.5,-2.29,-3.11,-3.11,0,*56
1520413466.24,46491,8.69,71528.5,-2.27,-3.07,-3.07,0,*59
1520413467.44,46492,8.75,71528.5,-2.27,-3.07,-3.07,0,*5A
1520413468.66,46493,8.69,71528.0,-2.29,-3.11,-3.11,0,*55
1520413469.86,46494,8.69,71526.8,-2.27,-3.07,-3.07,0,*5C
1520413471.08,46495,8.69,71526.3,-2.29,-3.11,-3.07,0,*54
1520413472.28,46496,8.75,71530.0,-2.27,-3.07,-3.03,0,*5A
1520413473.48,46497,8.75,71530.8,-2.23,-2.99,-3.03,0,*59
1520413474.68,46498,8.69,71528.3,-2.27,-3.03,-3.03,0,*50
1520413475.9,46499,8.75,71530.5,-2.21,-2.99,-2.99,0,*57
1520413477.1,46500,8.75,71530.3,-2.27,-3.03,-3.03,0,*50
1520413478.3,46501,8.75,71528.8,-2.23,-3.03,-3.03,0,*55
1520413479.5,46502,8.75,71528.8,-2.23,-3.03,-3.03,0,*56
1520413480.7,46503,8.75,71528.8,-2.27,-3.07,-3.03,0,*57
1520413481.9,46504,8.69,71528.8,-2.23,-3.07,-3.03,0,*54
1520413483.1,46505,8.75,71528.8,-2.23,-3.07,-3.03,0,*55
1520413484.3,46506,8.69,71528.3,-2.27,-3.07,-3.03,0,*52
1520413485.49,46507,8.75,71530.5,-2.27,-3.07,-3.03,0,*53
1520413486.7,46508,8.69,71528.0,-2.27,-3.15,-3.03,0,*5F
1520413487.9,46509,8.69,71528.5,-2.27,-3.03,-2.99,0,*5B
1520413489.1,46510,8.75,71532.0,-2.27,-3.03,-3.03,0,*51
1520413490.3,46511,8.69,71528.8,-2.27,-3.07,-3.03,0,*54
1520413491.49,46512,8.75,71530.3,-2.27,-3.03,-3.03,0,*53
1520413492.69,46513,8.75,71528.5,-2.27,-2.99,-3.03,0,*50
1520413493.89,46514,8.75,71530.3,-2.27,-3.03,-3.03,0,*55
1520413495.09,46515,8.75,71530.5,-2.27,-3.03,-3.03,0,*54
1520413496.29,46516,8.75,71530.8,-2.27,-3.03,-2.99,0,*55
1520413497.49,46517,8.75,71530.8,-2.27,-3.03,-2.99,0,*54
1520413498.7,46518,8.69,71526.5,-2.27,-2.99,-2.99,0,*59
1520413499.92,46519,8.69,71526.5,-2.29,-3.07,-3.07,0,*56
1520413501.12,46520,8.75,71530.0,-2.27,-3.03,-3.03,0,*52
1520413502.32,46521,8.69,71528.0,-2.27,-3.03,-3.03,0,*53
1520413503.52,46522,8.75,71532.8,-2.27,-3.03,-2.99,0,*52
1520413504.72,46523,8.75,71528.0,-2.27,-2.99,-2.99,0,*51
1520413505.92,46524,8.75,71530.0,-2.27,-3.03,-2.99,0,*54
1520413507.15,46525,8.75,71528.5,-2.29,-3.07,-3.03,0,*5D
1520413508.37,46526,8.75,71530.3,-2.29,-3.07,-3.07,0,*5A
1520413509.57,46527,8.75,71530.8,-2.27,-3.03,-3.03,0,*55
1520413510.77,46528,8.75,71530.5,-2.27,-3.03,-2.99,0,*58
1520413511.97,46529,8.75,71530.8,-2.27,-2.99,-3.03,0,*59
1520413513.17,46530,8.75,71530.8,-2.27,-2.99,-2.99,0,*53
1520413514.37,46531,8.69,71528.5,-2.27,-3.03,-3.03,0,*52
1520413515.57,46532,8.69,71530.5,-2.23,-3.03,-3.03,0,*55
1520413516.77,46533,8.75,71528.0,-2.27,-3.07,-3.03,0,*54
1520413517.99,46534,8.75,71528.0,-2.29,-3.19,-3.07,0,*56
1520413519.19,46535,8.75,71528.8,-2.27,-3.07,-3.03,0,*52
1520413520.39,46536,8.75,71528.0,-2.27,-3.15,-3.07,0,*56
1520413521.59,46537,8.75,71528.5,-2.27,-3.15,-3.07,0,*57
1520413522.79,46538,8.75,71528.3,-2.27,-3.15,-3.15,0,*5B
1520413523.99,46539,8.75,71530.8,-2.27,-3.15,-3.07,0,*59
1520413525.21,46540,8.75,71530.0,-2.29,-3.19,-3.11,0,*52
1520413526.41,46541,8.75,71532.8,-2.27,-3.07,-3.15,0,*56
1520413527.63,46542,8.69,71528.5,-2.29,-3.11,-3.11,0,*58
1520413528.83,46543,8.75,71534.8,-2.27,-3.15,-3.07,0,*54
1520413530.03,46544,8.75,71532.3,-2.27,-3.15,-3.07,0,*53
1520413531.23,46545,8.75,71532.8,-2.27,-3.07,-3.07,0,*51
1520413532.45,46546,8.75,71532.8,-2.29,-3.11,-3.11,0,*5C
1520413533.65,46547,8.75,71530.3,-2.27,-3.07,-3.07,0,*53
1520413534.85,46548,8.75,71530.0,-2.27,-3.07,-3.07,0,*5C
1520413536.05,46549,8.75,71534.3,-2.27,-3.07,-3.07,0,*5D
1520413537.27,46550,8.75,71530.0,-2.29,-3.11,-3.11,0,*5B
1520413538.47,46551,8.75,71532.5,-2.27,-3.11,-3.07,0,*53
1520413539.67,46552,8.69,71530.3,-2.27,-3.07,-3.03,0,*53
1520413540.87,46553,8.69,71528.0,-2.27,-3.03,-3.07,0,*52
1520413542.09,46554,8.69,71530.8,-2.29,-3.07,-3.11,0,*58
1520413543.29,46555,8.75,71532.5,-2.27,-3.03,-3.07,0,*54
1520413544.49,46556,8.75,71530.3,-2.27,-3.03,-3.07,0,*57
1520413545.68,46557,8.75,71534.8,-2.27,-3.03,-3.03,0,*52
1520413546.88,46558,8.75,71528.5,-2.27,-2.99,-3.03,0,*5F
1520413548.11,46559,8.75,71530.5,-2.29,-3.07,-3.07,0,*52
1520413549.31,46560,8.75,71534.5,-2.27,-3.03,-2.99,0,*54
1520413550.51,46561,8.69,71530.8,-2.27,-3.03,-2.99,0,*55
1520413551.71,46562,8.75,71534.8,-2.27,-2.99,-3.03,0,*56
1520413552.91,46563,8.75,71532.3,-2.27,-3.03,-2.99,0,*57
1520413554.13,46564,8.75,71534.5,-2.29,-3.03,-3.03,0,*5C
1520413555.33,46565,8.75,71532.0,-2.27,-3.03,-2.91,0,*59
1520413556.53,46566,8.75,71528.5,-2.27,-2.99,-2.99,0,*50
1520413557.75,46567,8.75,71532.0,-2.29,-3.03,-3.03,0,*5F
1520413558.95,46568,8.75,71530.0,-2.27,-2.99,-2.99,0,*5E
1520413560.18,46569,8.75,71534.8,-2.29,-3.03,-3.07,0,*55
1520413561.4,46570,8.75,71528.8,-2.29,-3.07,-3.03,0,*5D
1520413562.62,46571,8.75,71532.0,-2.29,-3.07,-3.03,0,*5C
1520413563.82,46572,8.75,71530.0,-2.27,-2.99,-2.99,0,*55
1520413565.02,46573,8.75,71532.3,-2.27,-2.99,-2.91,0,*5C
1520413566.22,46574,8.75,71530.0,-2.27,-2.99,-2.91,0,*5B
1520413567.44,46575,8.75,71534.3,-2.29,-3.03,-2.95,0,*52
1520413568.64,46576,8.75,71532.8,-2.27,-2.99,-2.91,0,*59
1520413569.83,46577,8.75,71532.3,-2.27,-2.91,-2.91,0,*50
1520413571.02,46578,8.75,71530.3,-2.27,-2.91,-2.91,0,*5F
1520413572.22,46579,8.75,71530.5,-2.27,-2.87,-2.99,0,*51
1520413573.45,46580,8.75,71530.0,-2.29,-2.95,-2.95,0,*56
1520413574.68,46581,8.75,71528.3,-2.29,-2.91,-2.95,0,*53
1520413575.87,46582,8.75,71530.0,-2.27,-2.91,-2.87,0,*5D
1520413577.07,46583,8.75,71530.8,-2.27,-2.87,-2.87,0,*5B
1520413578.29,46584,8.75,71528.0,-2.29,-3.03,-2.95,0,*5C
1520413579.5,46585,8.75,71532.0,-2.27,-2.99,-2.99,0,*5D
1520413580.69,46586,8.75,71530.0,-2.27,-2.99,-2.91,0,*56
1520413581.88,46587,8.75,71528.5,-2.27,-2.91,-2.91,0,*5F
1520413583.07,46588,8.75,71528.3,-2.27,-2.91,-2.91,0,*50
1520413584.27,46589,8.75,71534.8,-2.27,-2.91,-2.91,0,*51
1520413585.46,46590,8.75,71534.3,-2.27,-2.91,-2.87,0,*5E
1520413586.65,46591,8.75,71528.8,-2.27,-2.91,-2.87,0,*5F
1520413587.85,46592,8.75,71530.8,-2.27,-2.91,-2.87,0,*5C
1520413589.04,46593,8.75,71532.0,-2.27,-2.91,-2.91,0,*5A
1520413590.23,46594,8.75,71532.0,-2.23,-2.91,-2.87,0,*5E
1520413591.43,46595,8.75,71534.3,-2.23,-2.87,-2.91,0,*5F
1520413592.62,46596,8.75,71530.8,-2.27,-2.87,-2.91,0,*58
1520413593.82,46597,8.75,71530.5,-2.27,-3.03,-2.87,0,*53
1520413595.02,46598,8.75,71532.3,-2.27,-3.03,-2.91,0,*5B
1520413596.21,46599,8.75,71530.5,-2.27,-2.99,-2.87,0,*5F
1520413597.41,46600,8.75,71530.3,-2.27,-2.91,-2.99,0,*5B
1520413598.62,46601,8.75,71530.8,-2.27,-2.99,-2.99,0,*52
1520413599.82,46602,8.75,71528.8,-2.27,-3.03,-2.99,0,*53
1520413601.02,46603,8.75,71530.0,-2.27,-3.03,-3.03,0,*50
1520413602.22,46604,8.75,71528.3,-2.27,-3.03,-2.99,0,*55
1520413603.42,46605,8.75,71528.0,-2.23,-3.03,-2.99,0,*50
1520413604.62,46606,8.75,71528.5,-2.23,-2.99,-3.03,0,*53
1520413605.82,46607,8.75,71530.5,-2.23,-2.99,-3.03,0,*52
1520413607.02,46608,8.75,71532.8,-2.27,-2.91,-2.99,0,*53
1520413608.21,46609,8.75,71532.0,-2.27,-3.03,-2.91,0,*50
1520413609.41,46610,8.75,71530.8,-2.27,-2.99,-2.99,0,*52
1520413610.61,46611,8.75,71526.5,-2.23,-2.99,-2.91,0,*5F
1520413611.81,46612,8.75,71530.0,-2.27,-2.99,-2.99,0,*50
1520413613.01,46613,8.75,71530.3,-2.27,-2.99,-3.03,0,*53
1520413614.21,46614,8.75,71534.8,-2.27,-2.99,-2.99,0,*56
1520413615.41,46615,8.75,71534.0,-2.27,-3.03,-3.03,0,*57
1520413616.63,46616,8.75,71528.3,-2.29,-3.07,-3.03,0,*5E
1520413617.83,46617,8.75,71532.5,-2.27,-2.99,-3.03,0,*57
1520413619.03,46618,8.75,71534.0,-2.27,-3.03,-3.03,0,*5A
1520413620.23,46619,8.75,71530.3,-2.27,-3.03,-2.99,0,*59
1520413621.44,46620,8.75,71530.3,-2.27,-3.03,-2.99,0,*53
1520413622.64,46621,8.75,71530.8,-2.27,-3.03,-2.99,0,*52
1520413623.84,46622,8.75,71528.3,-2.27,-3.03,-2.99,0,*51
1520413625.04,46623,8.75,71528.0,-2.27,-3.03,-2.99,0,*50
1520413626.24,46624,8.75,71534.8,-2.27,-3.03,-2.99,0,*57
1520413627.44,46625,8.75,71528.0,-2.27,-3.03,-2.99,0,*56
1520413628.64,46626,8.75,71530.5,-2.23,-2.99,-3.03,0,*51
1520413629.84,46627,8.75,71530.8,-2.27,-3.03,-3.03,0,*56
1520413631.04,46628,8.75,71530.8,-2.23,-3.03,-3.03,0,*5D
1520413632.24,46629,8.75,71530.5,-2.23,-3.03,-3.03,0,*5C
1520413633.44,46630,8.75,71528.5,-2.27,-3.03,-3.03,0,*50
1520413634.64,46631,8.75,71526.5,-2.27,-3.03,-3.03,0,*51
1520413635.84,46632,8.75,71528.8,-2.23,-3.07,-3.03,0,*52
1520413637.04,46633,8.75,71528.8,-2.23,-3.07,-3.03,0,*53
1520413638.26,46634,8.75,71530.5,-2.29,-3.07,-3.03,0,*5E
1520413639.46,46635,8.75,71530.0,-2.27,-3.03,-2.99,0,*57
1520413640.66,46636,8.75,71534.0,-2.27,-3.03,-3.03,0,*56
1520413641.86,46637,8.75,71528.0,-2.27,-3.03,-2.99,0,*55
1520413643.06,46638,8.75,71528.5,-2.27,-3.03,-3.03,0,*58
1520413644.26,46639,8.75,71524.8,-2.23,-3.03,-3.03,0,*5D
1520413645.46,46640,8.75,71530.0,-2.23,-3.03,-3.03,0,*53
1520413646.66,46641,8.75,71526.0,-2.27,-3.03,-3.03,0,*56
1520413647.86,46642,8.75,71528.8,-2.27,-3.15,-3.07,0,*56
1520413649.06,46643,8.75,71528.0,-2.27,-3.07,-3.07,0,*54
1520413650.28,46644,8.75,71528.3,-2.29,-3.19,-3.11,0,*55
1520413651.48,46645,8.75,71532.5,-2.27,-3.07,-3.07,0,*52
1520413652.7,46646,8.75,71524.5,-2.29,-3.11,-3.11,0,*5F
1520413653.9,46647,8.75,71530.8,-2.27,-3.07,-3.15,0,*53
1520413655.09,46648,8.75,71528.5,-2.27,-3.07,-3.15,0,*5C
1520413656.29,46649,8.75,71530.3,-2.27,-3.15,-3.07,0,*5D
1520413657.49,46650,8.75,71530.8,-2.27,-3.15,-3.07,0,*55
1520413658.69,46651,8.75,71528.8,-2.27,-3.07,-3.15,0,*54
1520413659.88,46652,8.75,71528.0,-2.27,-3.07,-3.07,0,*54
1520413661.08,46653,8.75,71530.3,-2.27,-3.07,-3.07,0,*55
1520413662.28,46654,8.75,71530.5,-2.27,-3.07,-3.07,0,*52
1520413663.48,46655,8.75,71530.0,-2.27,-3.07,-3.07,0,*53
1520413664.68,46656,8.75,71528.8,-2.27,-3.07,-3.07,0,*50
1520413665.87,46657,8.75,71532.5,-2.27,-3.07,-3.07,0,*51
1520413667.07,46658,8.75,71530.3,-2.27,-3.07,-3.07,0,*5E
1520413668.27,46659,8.75,71532.3,-2.27,-3.07,-3.03,0,*5B
1520413669.47,46660,8.75,71530.3,-2.23,-3.07,-3.03,0,*55
1520413670.67,46661,8.75,71530.0,-2.27,-3.03,-3.03,0,*54
1520413671.89,46662,8.75,71530.8,-2.29,-3.07,-3.07,0,*59
1520413673.09,46663,8.75,71534.3,-2.23,-3.03,-2.99,0,*50
1520413674.3,46664,8.75,71534.5,-2.23,-3.03,-2.99,0,*57
1520413675.5,46665,8.75,71526.3,-2.23,-3.03,-2.99,0,*56
1520413676.7,46666,8.75,71526.5,-2.27,-3.03,-2.99,0,*51
1520413677.9,46667,8.75,71528.8,-2.27,-3.03,-3.03,0,*52
1520413679.12,46668,8.75,71530.3,-2.29,-3.07,-3.07,0,*53
1520413680.32,46669,8.75,71530.0,-2.27,-3.03,-3.03,0,*5C
1520413681.52,46670,8.75,71524.8,-2.27,-3.07,-3.03,0,*50
1520413682.72,46671,8.75,71530.5,-2.27,-3.15,-3.07,0,*56
1520413683.94,46672,8.75,71530.0,-2.29,-3.19,-3.11,0,*50
1520413685.14,46673,8.75,71528.3,-2.27,-3.07,-3.07,0,*57
1520413686.34,46674,8.75,71532.0,-2.27,-3.07,-3.07,0,*50
1520413687.54,46675,8.75,71530.5,-2.27,-3.15,-3.15,0,*51
1520413688.73,46676,8.75,71528.8,-2.27,-3.07,-3.07,0,*52
1520413689.96,46677,8.75,71528.0,-2.29,-3.11,-3.11,0,*5D
1520413691.15,46678,8.75,71528.3,-2.27,-3.07,-3.15,0,*5F
1520413692.37,46679,8.75,71528.0,-2.29,-3.11,-3.11,0,*53
1520413693.57,46680,8.75,71530.5,-2.23,-3.07,-3.07,0,*5F
1520413694.77,46681,8.75,71530.5,-2.27,-3.15,-3.07,0,*59
1520413696.0,46682,8.75,71530.8,-2.29,-3.11,-3.11,0,*57
1520413697.22,46683,8.75,71530.8,-2.29,-3.11,-3.11,0,*56
1520413698.44,46684,8.75,71528.8,-2.29,-3.11,-3.11,0,*51
1520413699.66,46685,8.75,71532.5,-2.29,-3.11,-3.11,0,*50
1520413700.89,46686,8.75,71530.3,-2.29,-3.11,-3.11,0,*53
1520413702.08,46687,8.75,71534.8,-2.27,-3.03,-3.07,0,*58
1520413703.31,46688,8.75,71530.3,-2.29,-3.07,-3.11,0,*5A
1520413704.51,46689,8.75,71530.0,-2.27,-3.03,-3.03,0,*52
1520413705.7,46690,8.75,71532.5,-2.27,-2.99,-3.03,0,*58
1520413706.93,46691,8.75,71530.8,-2.29,-3.07,-3.07,0,*55